Location: Bakhuizen
(52.8696°N, 5.4575°E)
Time: 04:43:53
(UTC+00:00)

Nimbus 7 Rocket - Pass Details

Date: 27 September 2021
Orbit: 922 x 965 km, 99.4° (Epoch: 17 October)

Event Time Altitude Azimuth Distance (km) Brightness Sun altitude
Rises 23:04:40 0° 19° (NNE) 3,585 8.2 -38.9°
Reaches altitude 10° 23:07:11 10° 24° (NNE) 2,640 7.3 -38.9°
Enters shadow 23:09:37 25° 36° (NE) 1,798 6.2 -39.0°
